Track STARLINK-1408 now! 10-day predictions STARLINK-1408 is classified as:
1 45688U 20035AH 21108.60289761 .00001250 00000-0 10280-3 0 9994 2 45688 53.0573 154.6632 0002070 150.7441 209.3664 15.06396888 49663